| time (UTC) | temp F | wind direction | speed MPH | gust MPH | rain 1hr in | rain 24hr in | rain mn in | humidity % | barometer mb |
| 20260506174518 | 62 | 133 | 3.0 | 12.0 | 0.00 | 0.00 | 0.00 | 77 | 1011.6 |
| 20260506173021 | 62 | 191 | 5.0 | 12.0 | 0.00 | 0.00 | 0.00 | 76 | 1011.3 |
| 20260506171523 | 62 | 120 | 5.0 | 12.0 | 0.00 | 0.00 | 0.00 | 78 | 1011.3 |
| 20260506170018 | 63 | 169 | 6.0 | 12.0 | 0.00 | 0.00 | 0.00 | 77 | 1011.3 |
| 20260506164517 | 63 | 169 | 4.0 | 13.0 | 0.00 | 0.00 | 0.00 | 75 | 1011.2 |
| 20260506163017 | 63 | 190 | 6.0 | 13.0 | 0.00 | 0.00 | 0.00 | 75 | 1011.0 |
| 20260506161516 | 63 | 147 | 7.0 | 11.0 | 0.00 | 0.00 | 0.00 | 75 | 1011.0 |
| 20260506160026 | 63 | 222 | 5.0 | 14.0 | 0.00 | 0.00 | 0.00 | 75 | 1010.9 |
| 20260506154517 | 63 | 174 | 5.0 | 14.0 | 0.00 | 0.00 | 0.00 | 74 | 1010.9 |
| 20260506153012 | 63 | 143 | 5.0 | 13.0 | 0.00 | 0.00 | 0.00 | 74 | 1010.9 |
| 20260506151511 | 64 | 184 | 7.0 | 14.0 | 0.00 | 0.00 | 0.00 | 72 | 1011.0 |
| 20260506150011 | 64 | 141 | 6.0 | 13.0 | 0.00 | 0.00 | 0.00 | 71 | 1011.0 |
| 20260506144510 | 64 | 156 | 8.0 | 13.0 | 0.00 | 0.00 | 0.00 | 70 | 1010.9 |
| 20260506143009 | 64 | 195 | 5.0 | 12.0 | 0.00 | 0.00 | 0.00 | 72 | 1011.1 |
| 20260506141508 | 63 | 193 | 5.0 | 14.0 | 0.00 | 0.00 | 0.00 | 73 | 1011.2 |
| 20260506140008 | 63 | 134 | 5.0 | 13.0 | 0.00 | 0.00 | 0.00 | 73 | 1011.4 |
| 20260506134507 | 63 | 153 | 6.0 | 12.0 | 0.00 | 0.00 | 0.00 | 73 | 1011.6 |
| 20260506133006 | 63 | 160 | 6.0 | 12.0 | 0.00 | 0.00 | 0.00 | 72 | 1011.7 |
| 20260506131511 | 63 | 166 | 4.0 | 11.0 | 0.00 | 0.00 | 0.00 | 71 | 1011.9 |
| 20260506130005 | 64 | 156 | 3.0 | 12.0 | 0.00 | 0.00 | 0.00 | 71 | 1012.0 |
| 20260506124503 | 64 | 195 | 5.0 | 10.0 | 0.00 | 0.00 | 0.00 | 71 | 1012.1 |
| 20260506123003 | 64 | 177 | 5.0 | 11.0 | 0.00 | 0.00 | 0.00 | 70 | 1012.1 |
| 20260506121502 | 63 | 153 | 3.0 | 11.0 | 0.00 | 0.00 | 0.00 | 73 | 1012.0 |
| 20260506120007 | 62 | 150 | 6.0 | 13.0 | 0.00 | 0.00 | 0.00 | 73 | 1011.9 |
| 20260506114500 | 63 | 160 | 6.0 | 12.0 | 0.00 | 0.00 | 0.00 | 73 | 1011.9 |
| 20260506113100 | 62 | 82 | 5.0 | 11.0 | 0.00 | 0.00 | 0.00 | 74 | 1012.0 |
| 20260506111601 | 62 | 137 | 4.0 | 10.0 | 0.00 | 0.00 | 0.00 | 72 | 1012.2 |
| 20260506110104 | 64 | 134 | 3.0 | 8.0 | 0.00 | 0.00 | 0.00 | 70 | 1012.3 |
| 20260506104559 | 64 | 166 | 5.0 | 10.0 | 0.00 | 0.00 | 0.00 | 70 | 1012.4 |
| 20260506103057 | 64 | 190 | 2.0 | 8.0 | 0.00 | 0.00 | 0.00 | 71 | 1012.4 |
| 20260506101556 | 63 | 202 | 4.0 | 9.0 | 0.00 | 0.00 | 0.00 | 70 | 1012.4 |
| 20260506100056 | 63 | 163 | 3.0 | 8.0 | 0.00 | 0.00 | 0.00 | 70 | 1012.5 |
| 20260506094621 | 64 | 264 | 2.0 | 9.0 | 0.00 | 0.00 | 0.00 | 71 | 1012.5 |
| 20260506093054 | 63 | 184 | 5.0 | 10.0 | 0.00 | 0.00 | 0.00 | 69 | 1012.4 |
| 20260506091554 | 64 | 157 | 6.0 | 10.0 | 0.00 | 0.00 | 0.00 | 68 | 1012.2 |
| 20260506090052 | 63 | 250 | 2.0 | 8.0 | 0.00 | 0.00 | 0.00 | 68 | 1012.2 |
| 20260506084551 | 64 | 190 | 2.0 | 6.0 | 0.00 | 0.00 | 0.00 | 70 | 1012.1 |
| 20260506083050 | 64 | 183 | 1.0 | 3.0 | 0.00 | 0.00 | 0.00 | 70 | 1012.1 |
| 20260506081547 | 64 | 174 | 1.0 | 4.0 | 0.00 | 0.00 | 0.00 | 70 | 1012.0 |
| 20260506080147 | 63 | 197 | 0.0 | 3.0 | 0.00 | 0.00 | 0.00 | 70 | 1011.9 |
| 20260506073043 | 62 | 200 | 1.0 | 4.0 | 0.00 | 0.00 | 0.00 | 70 | 1011.8 |
| 20260506071544 | 62 | 165 | 0.0 | 2.0 | 0.00 | 0.00 | 0.00 | 69 | 1011.6 |
| 20260506061529 | 54 | 338 | 0.0 | 2.0 | 0.00 | 0.00 | 0.00 | 82 | 1011.4 |
| 20260506044512 | 0 | 0.0 | 0.0 | 0.00 | 0.00 | 0.00 | 1010.6 | ||
| 20260506043008 | 0 | 0.0 | 0.0 | 0.00 | 0.00 | 0.00 | 1010.5 | ||
| 20260506041511 | 0 | 0.0 | 0.0 | 0.00 | 0.00 | 0.00 | 1010.5 | ||
| 20260506040100 | 0 | 0.0 | 0.0 | 0.00 | 0.00 | 0.00 | 1010.5 | ||
| 20260506034556 | 0 | 0.0 | 0.0 | 0.00 | 0.00 | 0.00 | 1010.4 | ||
| 20260506033052 | 0 | 0.0 | 0.0 | 0.00 | 0.00 | 0.00 | 1010.4 | ||
| 20260506031551 | 0 | 0.0 | 0.0 | 0.00 | 0.00 | 0.00 | 1010.3 | ||
| 20260506030043 | 0 | 0.0 | 0.0 | 0.00 | 0.00 | 0.00 | 1010.4 | ||
| 20260506024546 | 0 | 0.0 | 0.0 | 0.00 | 0.00 | 0.00 | 1010.4 | ||
| 20260506023034 | 0 | 0.0 | 0.0 | 0.00 | 0.00 | 0.00 | 1010.4 | ||
| 20260506021530 | 0 | 0.0 | 0.0 | 0.00 | 0.00 | 0.00 | 1010.2 | ||
| 20260506020026 | 0 | 0.0 | 0.0 | 0.00 | 0.00 | 0.00 | 1010.2 | ||
| 20260506014521 | 0 | 0.0 | 0.0 | 0.00 | 0.00 | 0.00 | 1010.1 | ||
| 20260506013016 | 0 | 0.0 | 0.0 | 0.00 | 0.00 | 0.00 | 1010.1 | ||
| 20260506011511 | 0 | 0.0 | 0.0 | 0.00 | 0.00 | 0.00 | 1010.1 | ||
| 20260506010007 | 0 | 0.0 | 0.0 | 0.00 | 0.00 | 0.00 | 1010.3 | ||
| 20260506004503 | 0 | 0.0 | 0.0 | 0.00 | 0.00 | 0.00 | 1010.5 | ||
| 20260506003059 | 0 | 0.0 | 0.0 | 0.00 | 0.00 | 0.00 | 1010.4 | ||
| 20260506001606 | 0 | 0.0 | 0.0 | 0.00 | 0.00 | 0.00 | 1010.4 | ||
| 20260506000049 | 0 | 0.0 | 0.0 | 0.00 | 0.00 | 0.00 | 1010.4 | ||
| 20260505234549 | 0 | 0.0 | 0.0 | 0.00 | 0.00 | 0.00 | 1010.6 | ||
| 20260505233042 | 55 | 123 | 0.0 | 2.0 | 0.00 | 0.00 | 0.00 | 77 | 1010.8 |
| 20260505231550 | 56 | 8 | 0.0 | 5.0 | 0.00 | 0.00 | 0.00 | 77 | 1011.0 |
| 20260505230051 | 56 | 8 | 1.0 | 5.0 | 0.00 | 0.00 | 0.00 | 77 | 1011.0 |
| 20260505224537 | 55 | 309 | 0.0 | 1.0 | 0.00 | 0.00 | 0.00 | 78 | 1011.2 |
| 20260505223034 | 56 | 256 | 0.0 | 2.0 | 0.00 | 0.00 | 0.00 | 77 | 1010.9 |
| 20260505221531 | 57 | 134 | 1.0 | 7.0 | 0.00 | 0.00 | 0.00 | 73 | 1011.0 |
| 20260505220128 | 57 | 343 | 3.0 | 9.0 | 0.00 | 0.00 | 0.00 | 73 | 1011.1 |
| 20260505214528 | 57 | 350 | 8.0 | 15.0 | 0.00 | 0.00 | 0.00 | 73 | 1011.1 |
| 20260505213026 | 56 | 342 | 10.0 | 19.0 | 0.00 | 0.00 | 0.00 | 77 | 1010.9 |
| 20260505211525 | 56 | 357 | 0.0 | 8.0 | 0.00 | 0.00 | 0.00 | 85 | 1011.2 |
| 20260505210023 | 56 | 329 | 6.0 | 12.0 | 0.00 | 0.00 | 0.00 | 85 | 1011.2 |
| 20260505204519 | 57 | 49 | 11.0 | 16.0 | 0.00 | 0.00 | 0.00 | 84 | 1010.8 |
| 20260505203020 | 58 | 4 | 10.0 | 22.0 | 0.00 | 0.00 | 0.00 | 86 | 1010.7 |
| 20260505201515 | 60 | 43 | 8.0 | 12.0 | 0.00 | 0.00 | 0.00 | 92 | 1010.5 |
| 20260505200013 | 60 | 39 | 2.0 | 4.0 | 0.00 | 0.00 | 0.00 | 91 | 1010.3 |
| 20260505194512 | 60 | 337 | 0.0 | 3.0 | 0.00 | 0.00 | 0.00 | 91 | 1009.9 |
| 20260505193012 | 61 | 333 | 2.0 | 5.0 | 0.00 | 0.00 | 0.00 | 89 | 1009.5 |
| 20260505191511 | 62 | 169 | 0.0 | 1.0 | 0.00 | 0.00 | 0.00 | 88 | 1009.1 |
| 20260505190010 | 62 | 160 | 0.0 | 0.0 | 0.00 | 0.01 | 0.00 | 89 | 1009.4 |
| 20260505184508 | 62 | 127 | 0.0 | 0.0 | 0.00 | 0.01 | 0.00 | 89 | 1009.4 |
| 20260505183007 | 62 | 108 | 0.0 | 2.0 | 0.00 | 0.01 | 0.00 | 89 | 1009.6 |
| 20260505181507 | 62 | 340 | 0.0 | 10.0 | 0.00 | 0.01 | 0.00 | 90 | 1009.6 |
| 20260505180013 | 62 | 127 | 2.0 | 7.0 | 0.00 | 0.01 | 0.00 | 89 | 1009.5 |